Other Public Products
Issued by NWS Charleston, SC

Current Version | Previous Version | Graphics & Text | Print | Product List | Glossary On
Versions: 1 2 3 4 5 6 7 8 9 10 11 12 13 14 15 16 17 18 19 20 21 22 23 24 25 26 27 28 29 30 31 32 33 34 35 36 37 38 39 40 41 42 43 44 45 46 47 48 49 50
000
FPUS82 KCHS 191824
OPUCHS

TEST...KCHS/KSAV Gateway Observations...TEST
National Weather Service Charleston SC
200 PM EDT TUE SEP 19 2017

NOTE: "fair" indicates few or no clouds below 12,000 feet with no
significant weather and/or obstructions to visibility.

SCZ050-WAZ558-NCZ071-TXZ119-213-PAZ071-DCZ001-FLZ074-172-MI076-
NYZ176-178-MAZ016-IL014-TNZ027-NJZ106-GAZ044-MD014-191900-

...Gateway Observations for Charleston International...

CITY           SKY/WX    TMP DP  RH WIND       PRES   REMARKS
Chas Airport   MOSUNNY   86  68  54 N10       29.96F
6HR MIN TEMP:  70; 6HR MAX TEMP:  86;

Seattle        PTSUNNY   55  48  77 S12       29.75S
6HR MIN TEMP:  50; 6HR MAX TEMP:  55; 6HR PCP:  0.02;

Charlotte      PTSUNNY   83  67  58 VRB6      30.02F
6HR MIN TEMP:  67; 6HR MAX TEMP:  83;

Dallas DFW     PTSUNNY   91  73  55 S15       29.88F HX  99
6HR MIN TEMP:  76; 6HR MAX TEMP:  91;

Dallas Love    PTSUNNY   92  72  51 S13G20    29.89F HX  99
6HR MIN TEMP:  76; 6HR MAX TEMP:  92;

Philladelphia  CLOUDY    79  64  60 N12G23    29.91F
6HR MIN TEMP:  72; 6HR MAX TEMP:  80;

Wash National  MOSUNNY   82  68  62 NW13      29.95F
6HR MIN TEMP:  71; 6HR MAX TEMP:  82;

Baltimore      MOSUNNY   80  66  62 N10G20    29.94F
6HR MIN TEMP:  69; 6HR MAX TEMP:  81;

Miami          MOSUNNY   92  71  50 NW6       29.91F HX  98
6HR MIN TEMP:  81; 6HR MAX TEMP:  92;

Detroit        CLOUDY    70  68  93 E7        29.99F
6HR MIN TEMP:  65; 6HR MAX TEMP:  72; 6HR PCP:  0.29;

Newark         CLOUDY    79  63  57 NE18G26   29.94F
6HR MIN TEMP:  71; 6HR MAX TEMP:  79;

Laguardia      CLOUDY    77  65  66 NE22G29   29.94F
6HR MIN TEMP:  71; 6HR MAX TEMP:  78; 6HR PCP: TRACE;

J F K          RAIN      72  66  81 NE26G35   29.94F
6HR MIN TEMP:  71; 6HR MAX TEMP:  77; 6HR PCP:  0.01;

Boston Logan   CLOUDY    65  64  97 NE15      30.06F
6HR MIN TEMP:  63; 6HR MAX TEMP:  66; 6HR PCP:  0.03;

Ft. Lauderdale PTSUNNY   87  76  69 E10       29.91F HX  97
                                      6HR PCP: TRACE;

Chicago O`Hare CLOUDY    76  64  66 NE7       29.94F
6HR MIN TEMP:  66; 6HR MAX TEMP:  78; 6HR PCP: TRACE;

Chicago Midway MOSUNNY   76  64  66 E8        29.95S
6HR MIN TEMP:  68; 6HR MAX TEMP:  77; 6HR PCP:  0.07;

Houston Bush   PTSUNNY   88  74  63 S9        29.95F HX  96
6HR MIN TEMP:  74; 6HR MAX TEMP:  90;

Houston Hobby  MOSUNNY   93  74  53 S8        29.94F HX 103
6HR MIN TEMP:  78; 6HR MAX TEMP:  93;

Nashville      PTSUNNY   79  70  74 E13       29.99F
6HR MIN TEMP:  68; 6HR MAX TEMP:  85;

Atlanta        MOSUNNY   85  63  47 CALM      30.01F
6HR MIN TEMP:  67; 6HR MAX TEMP:  86;


$$

GAZ044-118-TXZ119-213-NCZ071-DCZ001-MDZ014-506-PAZ021-071-NJZ106-
NYZ176-178-MAZ106-OHZ011-021-055-MIZ076-KYZ091-ILZ014-INZ047-
MNZ060-ONZ431-191900-

...Gateway Observations for Savannah International...

CITY           SKY/WX    TMP DP  RH WIND       PRES   REMARKS
Savannah Arpt  PTSUNNY   91  66  43 VRB7      29.97F HX  93
6HR MIN TEMP:  71; 6HR MAX TEMP:  91;

Atlanta        MOSUNNY   85  63  47 CALM      30.01F
6HR MIN TEMP:  67; 6HR MAX TEMP:  86;

Charlotte      PTSUNNY   83  67  58 VRB6      30.02F
6HR MIN TEMP:  67; 6HR MAX TEMP:  83;

Dallas DFW     PTSUNNY   91  73  55 S15       29.88F HX  99
6HR MIN TEMP:  76; 6HR MAX TEMP:  91;

Houston Bush   PTSUNNY   88  74  63 S9        29.95F HX  96
6HR MIN TEMP:  74; 6HR MAX TEMP:  90;

Wash National  MOSUNNY   82  68  62 NW13      29.95F
6HR MIN TEMP:  71; 6HR MAX TEMP:  82;

Wash Dulles    MOSUNNY   80  66  62 N12       29.97F
6HR MIN TEMP:  67; 6HR MAX TEMP:  80;

Baltimore      MOSUNNY   80  66  62 N10G20    29.94F
6HR MIN TEMP:  69; 6HR MAX TEMP:  81;

Philadelphia   CLOUDY    79  64  60 N12G23    29.91F
6HR MIN TEMP:  72; 6HR MAX TEMP:  80;

Newark         CLOUDY    79  63  57 NE18G26   29.94F
6HR MIN TEMP:  71; 6HR MAX TEMP:  79;

Laguardia      CLOUDY    77  65  66 NE22G29   29.94F
6HR MIN TEMP:  71; 6HR MAX TEMP:  78; 6HR PCP: TRACE;

J F K          RAIN      72  66  81 NE26G35   29.94F
6HR MIN TEMP:  71; 6HR MAX TEMP:  77; 6HR PCP:  0.01;

Boston         CLOUDY    65  64  97 NE15      30.06F
6HR MIN TEMP:  63; 6HR MAX TEMP:  66; 6HR PCP:  0.03;

Pittsburg      MOSUNNY   80  61  52 CALM      30.01F
6HR MIN TEMP:  64; 6HR MAX TEMP:  81;

Akron          CLOUDY    79  63  57 W6        30.02S
6HR MIN TEMP:  65; 6HR MAX TEMP:  82;

Cleveland      CLOUDY    78  66  66 SE7       30.01F
6HR MIN TEMP:  71; 6HR MAX TEMP:  80; 6HR PCP: TRACE;

Cincinnati     CLOUDY    70  67  90 CALM      29.99F
6HR MIN TEMP:  68; 6HR MAX TEMP:  70; 6HR PCP:  0.27;

Columbus       CLOUDY    73  65  78 SW10      30.01S
Detroit        CLOUDY    70  68  93 E7        29.99F
6HR MIN TEMP:  65; 6HR MAX TEMP:  72; 6HR PCP:  0.29;

Chicago O`Hare CLOUDY    76  64  66 NE7       29.94F
6HR MIN TEMP:  66; 6HR MAX TEMP:  78; 6HR PCP: TRACE;

Minneapolis    PTSUNNY   75  65  70 SE15      29.86F
6HR MIN TEMP:  60; 6HR MAX TEMP:  76;

Indianapolis   PTSUNNY   77  68  73 W6        29.96F
6HR MIN TEMP:  68; 6HR MAX TEMP:  77; 6HR PCP:  0.02;

Toronto Canada PTSUNNY   79  66  65 SE5       30.01F

$$




USA.gov is the U.S. government's official web portal to all federal, state and local government web resources and services.